Wind_Speed
70 71 72 73 74 75 76 77 78 79 80 82 83 83 83 84 84 84 84 84 84 83 82 80 77 74 70 68 66 64 63 62 61 61 60 60 60 60 60 60 60 59
74 75 76 77 78 78 79 80 81 82 83 84 84 84 84 84 84 84 83 83 82 80 78 75 71 68 66 64 63 62 62 61 61 61 61 61 61 61 61 61 61 61
78 78 79 79 80 81 81 82 82 83 83 84 84 84 84 84 83 82 81 80 78 75 72 69 66 65 64 63 63 63 62 62 62 62 62 62 63 63 63 63 63 63
80 80 79 79 80 80 80 81 81 82 83 83 83 83 82 82 80 79 77 75 72 70 67 66 65 64 64 64 64 64 64 64 64 65 65 65 65 65 66 66 66 65
76 76 77 77 77 78 79 80 81 82 82 82 81 80 79 78 76 74 72 70 68 67 66 65 65 65 65 65 66 66 66 66 67 67 67 67 67 67 67 67 67 67
72 73 74 75 76 77 78 79 79 79 79 78 78 77 75 74 72 70 68 67 67 67 66 66 67 67 67 67 67 67 67 68 68 68 68 68 68 68 68 68 68 68
70 71 72 73 74 75 76 76 76 76 75 75 74 73 71 70 69 68 68 67 67 67 67 68 67 67 67 68 68 68 69 69 69 69 69 69 69 69 69 69 69 68
69 70 71 72 73 73 74 74 75 74 74 73 71 70 69 68 68 68 68 68 68 68 68 68 68 68 69 69 70 70 70 71 71 72 72 71 71 70 70 69 69 69
68 69 70 71 72 73 73 73 73 72 71 70 69 68 67 67 67 68 68 68 68 68 69 69 69 69 70 70 71 71 72 73 74 74 74 74 73 72 71 70 70 70
67 68 70 70 71 71 71 70 70 69 67 67 66 67 67 68 68 68 68 69 69 69 69 70 70 70 71 72 72 73 74 75 76 77 76 75 74 73 72 71 71 70
67 68 68 68 68 68 67 67 67 66 66 66 67 67 68 69 69 69 69 69 69 70 70 71 71 72 72 73 74 75 77 78 78 78 77 76 74 73 72 71 71 71
65 66 65 65 65 65 65 66 66 66 66 67 68 68 69 69 69 69 70 70 71 71 72 72 72 73 73 75 76 77 79 79 79 78 77 76 74 73 72 71 71 71
62 62 62 62 63 64 65 66 66 67 68 69 69 69 69 69 70 70 71 72 72 73 73 73 73 74 75 76 78 79 80 80 79 78 77 75 73 72 71 71 70 70
60 60 61 62 64 65 66 67 67 68 68 69 69 69 69 70 71 72 73 73 74 74 73 74 74 75 77 78 79 80 80 80 78 77 76 74 73 72 71 70 70 71
60 60 62 63 65 66 67 67 67 67 68 68 69 70 71 72 73 74 74 74 74 74 74 75 76 77 78 79 80 80 79 78 77 75 74 73 72 71 71 71 71 71
60 61 63 64 66 66 66 66 66 67 68 69 70 71 72 73 74 74 74 75 75 75 76 77 78 79 80 80 79 79 77 76 75 74 73 72 72 71 71 72 72 72
61 62 63 65 66 66 66 66 67 68 69 70 71 72 73 74 74 75 75 76 76 77 78 79 80 80 80 79 78 77 76 74 73 72 72 72 72 73 73 73 73 73
62 62 64 65 66 66 66 67 67 68 69 70 71 72 74 75 75 76 77 77 78 78 79 80 80 79 78 77 76 75 74 72 71 71 71 72 73 73 73 73 74 74
63 64 65 66 66 66 66 66 67 68 69 70 72 74 75 76 77 78 78 79 79 79 79 79 78 77 76 75 74 73 72 71 71 71 71 72 72 73 73 74 75 76
65 66 66 66 66 66 65 65 66 68 70 72 74 75 77 77 78 79 79 79 78 78 77 76 76 75 75 74 72 71 70 70 70 71 71 71 72 73 74 75 76 77
66 67 66 66 65 64 64 65 67 69 71 73 75 76 78 78 79 79 78 78 77 76 75 74 74 74 73 71 70 69 69 70 70 70 71 71 72 74 75 76 77 77
67 66 66 65 65 64 65 66 68 70 72 74 76 77 78 78 78 77 77 77 76 75 74 73 73 72 71 69 69 69 69 69 70 70 71 72 73 74 76 77 77 76
66 65 65 65 64 65 66 68 70 71 73 75 76 77 77 76 76 76 76 76 75 73 72 72 71 70 69 68 68 68 69 69 70 71 72 73 74 74 75 76 76 75
65 65 65 65 65 66 68 69 71 73 74 75 75 75 75 75 76 76 76 75 73 72 72 71 70 69 68 68 68 68 69 70 71 72 73 73 74 74 74 74 74 73
65 65 65 66 66 68 69 70 71 72 73 73 73 73 74 75 76 76 75 73 72 72 71 70 68 68 68 68 68 69 70 71 72 72 73 73 73 73 73 72 71 70
65 66 66 67 67 68 69 70 70 71 71 71 71 73 74 76 76 75 73 71 71 71 70 68 68 68 68 68 69 70 70 71 71 71 71 72 73 73 72 71 69 67
Wind_Direction
267 269 272 274 276 278 279 280 282 283 285 287 289 291 293 294 295 296 298 300 301 301 302 302 303 303 304 304 304 305 305 304 304 303 303 302 301 301 300 300 299 299
267 269 271 273 275 277 279 280 282 284 286 288 290 291 293 294 296 297 299 300 300 301 302 302 303 303 303 304 304 304 304 304 303 303 302 301 301 300 300 299 298 298
270 271 273 275 276 278 280 282 284 285 287 289 291 292 294 295 297 298 299 300 301 301 301 302 302 303 303 303 303 304 304 304 303 303 302 302 301 300 300 299 298 298
271 273 275 277 279 280 282 283 285 286 288 290 291 293 294 296 297 298 299 300 300 301 301 301 302 302 303 303 303 303 303 303 303 303 302 301 301 300 299 299 298 297
273 275 277 278 280 282 283 285 286 288 289 291 292 294 295 297 298 298 299 299 299 300 300 301 301 302 302 303 303 303 304 303 303 303 302 301 301 300 300 299 298 297
275 276 278 280 281 283 284 286 287 289 290 291 293 294 295 296 296 297 297 298 299 300 300 301 301 302 302 303 303 303 303 303 303 303 303 302 302 301 301 300 299 297
278 279 281 282 283 284 285 286 287 289 290 291 293 293 294 295 295 296 297 298 299 300 301 301 302 302 302 303 303 303 304 304 304 304 304 303 303 303 302 301 299 298
280 281 281 282 283 284 285 287 288 289 290 291 292 293 294 295 296 297 298 299 299 300 300 301 302 302 302 303 303 304 304 305 305 305 305 305 304 303 302 301 299 298
279 281 282 283 284 285 286 287 288 289 290 291 292 294 295 296 297 298 298 299 300 300 301 301 302 302 303 304 304 305 305 306 306 306 306 305 304 303 302 301 299 298
281 282 283 284 286 286 287 287 288 289 290 292 293 294 295 296 297 298 299 300 300 301 301 302 303 303 304 304 305 306 306 306 307 307 306 305 304 303 302 301 300 299
283 284 284 285 286 286 286 287 288 289 291 292 293 295 296 297 298 299 300 301 301 302 302 303 304 304 305 305 305 306 306 306 307 307 306 305 304 304 302 301 300 300
283 284 284 285 285 286 286 287 289 290 292 293 295 296 297 298 299 300 301 302 302 303 304 304 305 305 305 305 305 305 306 306 306 306 306 305 305 304 303 302 301 301
283 283 284 285 285 286 288 289 291 293 294 295 297 298 299 300 300 301 302 303 304 304 305 305 305 305 305 305 305 305 306 306 307 307 306 305 305 304 304 303 302 302
283 284 285 286 287 288 290 292 293 295 296 297 298 299 300 300 301 302 303 304 305 305 305 305 305 305 305 305 305 306 306 307 307 307 306 305 305 305 304 304 303 303
285 286 286 287 288 290 292 294 295 296 297 298 299 300 300 301 302 303 304 305 305 305 305 305 305 305 305 305 306 306 307 307 307 307 306 306 305 305 305 305 305 305
286 287 287 288 290 291 293 295 296 297 297 298 299 300 300 301 302 303 304 305 305 305 305 305 305 305 306 306 307 307 308 308 308 307 307 306 306 306 306 306 306 306
287 288 289 290 291 293 294 295 296 296 297 298 299 300 301 302 303 304 305 305 306 306 306 306 306 306 307 307 308 308 308 308 308 308 308 308 308 308 308 308 308 307
287 288 289 290 292 293 294 295 296 297 298 299 299 300 301 302 303 304 305 306 306 306 306 306 307 307 308 308 309 309 309 309 309 309 308 308 309 309 309 309 309 309
288 289 290 291 292 294 294 295 296 297 298 298 299 300 301 302 304 305 306 306 306 306 307 307 308 308 309 309 310 310 309 309 309 309 309 309 309 310 310 310 310 310
289 289 290 292 293 294 295 295 296 296 297 298 299 300 301 303 304 305 306 306 307 307 307 308 308 309 309 310 310 310 310 310 309 309 310 310 310 310 311 311 310 310
290 290 291 292 293 293 294 294 295 295 296 297 299 300 302 304 305 306 306 307 307 308 308 308 309 309 310 310 310 310 310 310 310 310 311 311 311 311 311 310 309 309
291 291 292 293 293 293 293 293 294 295 296 297 299 301 303 304 305 306 306 307 307 308 308 309 309 310 310 310 310 310 310 310 310 311 311 312 312 311 310 309 309 309
291 292 293 293 293 293 293 293 294 295 296 298 300 302 304 304 305 306 306 307 308 308 308 309 310 310 310 310 310 310 310 310 311 312 312 312 311 310 309 309 309 310
291 292 293 292 292 292 292 293 294 295 297 299 301 303 304 304 305 306 306 307 308 308 309 310 310 310 310 310 310 310 311 312 312 312 312 311 310 310 309 310 311 311
291 292 292 292 292 293 293 294 295 297 299 300 302 303 303 304 305 306 307 307 308 309 310 310 310 310 310 310 310 311 312 312 312 312 311 311 310 311 311 312 313 313
291 292 293 293 294 294 295 296 297 298 300 301 302 302 303 304 305 306 307 307 308 309 310 310 310 310 310 311 311 312 312 312 312 312 312 312 312 313 314 315 315 316
Height
10706 10704 10703 10701 10699 10697 10695 10694 10692 10691 10689 10688 10686 10683 10681 10679 10676 10673 10670 10667 10664 10661 10658 10655 10652 10648 10645 10641 10638 10635 10632 10629 10626 10623 10620 10618 10614 10612 10609 10607 10604 10602
10700 10699 10697 10696 10694 10693 10691 10689 10687 10686 10684 10682 10680 10677 10675 10672 10669 10666 10664 10661 10658 10655 10651 10648 10645 10641 10638 10635 10632 10629 10626 10623 10620 10617 10614 10611 10608 10605 10602 10600 10597 10595
10695 10694 10692 10691 10690 10688 10686 10684 10682 10680 10678 10676 10673 10671 10668 10665 10662 10660 10657 10654 10651 10648 10645 10641 10638 10635 10631 10628 10625 10622 10619 10616 10613 10610 10608 10605 10602 10598 10595 10592 10590 10588
10690 10689 10687 10686 10684 10682 10680 10678 10676 10674 10672 10669 10667 10664 10661 10659 10656 10653 10650 10647 10644 10641 10638 10634 10631 10628 10625 10622 10618 10615 10612 10609 10606 10603 10600 10597 10594 10591 10588 10585 10582 10580
10686 10684 10683 10681 10679 10676 10674 10672 10670 10668 10665 10663 10660 10658 10655 10652 10650 10647 10644 10641 10638 10634 10631 10628 10625 10621 10618 10615 10611 10608 10605 10602 10599 10596 10593 10589 10586 10583 10580 10576 10573 10571
10681 10679 10677 10675 10673 10671 10669 10666 10664 10662 10659 10657 10654 10652 10649 10647 10644 10641 10638 10634 10631 10628 10625 10621 10618 10614 10611 10608 10604 10601 10598 10595 10591 10588 10585 10581 10578 10574 10571 10568 10564 10562
10675 10673 10671 10669 10667 10665 10663 10661 10659 10656 10654 10651 10649 10646 10644 10641 10638 10634 10631 10628 10624 10621 10618 10614 10611 10607 10604 10600 10597 10594 10590 10587 10583 10580 10576 10573 10570 10566 10563 10559 10555 10552
10669 10667 10665 10663 10661 10659 10657 10655 10653 10650 10648 10645 10643 10640 10637 10634 10631 10627 10624 10621 10618 10614 10611 10607 10604 10600 10597 10593 10589 10586 10582 10578 10575 10571 10568 10564 10561 10557 10554 10550 10545 10542
10664 10662 10659 10657 10655 10653 10651 10648 10646 10643 10641 10639 10636 10634 10630 10627 10624 10621 10618 10614 10611 10607 10604 10600 10596 10593 10589 10585 10581 10577 10573 10570 10566 10562 10559 10555 10551 10548 10544 10540 10536 10532
10658 10655 10653 10651 10649 10647 10644 10641 10639 10637 10635 10633 10630 10627 10624 10621 10618 10614 10611 10607 10604 10600 10596 10592 10589 10585 10581 10577 10573 10569 10565 10561 10557 10553 10549 10545 10541 10537 10533 10530 10526 10522
10651 10649 10647 10645 10642 10640 10637 10634 10633 10631 10629 10626 10623 10620 10617 10614 10611 10607 10604 10600 10596 10593 10588 10585 10581 10576 10573 10568 10564 10561 10556 10552 10548 10544 10540 10536 10532 10528 10524 10520 10516 10512
10645 10643 10641 10638 10635 10633 10630 10628 10626 10624 10622 10619 10616 10613 10610 10607 10604 10600 10596 10593 10589 10585 10581 10577 10573 10568 10564 10560 10556 10552 10548 10544 10539 10535 10530 10526 10522 10518 10514 10510 10506 10502
10639 10636 10634 10631 10628 10626 10623 10621 10620 10617 10615 10612 10609 10606 10603 10600 10596 10593 10589 10585 10581 10577 10573 10569 10565 10561 10556 10552 10548 10544 10540 10535 10530 10526 10521 10516 10513 10509 10505 10501 10497 10493
10632 10630 10627 10624 10621 10619 10617 10615 10613 10610 10608 10605 10602 10599 10596 10592 10589 10586 10582 10578 10574 10570 10566 10561 10557 10553 10549 10544 10540 10536 10531 10526 10521 10517 10512 10507 10504 10501 10496 10492 10488 10484
10625 10623 10620 10617 10615 10612 10611 10609 10606 10604 10601 10598 10595 10592 10588 10585 10582 10578 10575 10571 10567 10562 10558 10554 10550 10545 10541 10537 10532 10527 10523 10518 10513 10508 10503 10498 10495 10491 10487 10483 10478 10474
10619 10616 10613 10610 10608 10606 10605 10602 10600 10597 10594 10591 10588 10585 10581 10578 10574 10571 10567 10563 10559 10555 10550 10546 10541 10537 10533 10528 10524 10519 10514 10509 10504 10499 10494 10490 10485 10481 10477 10473 10468 10464
10612 10609 10606 10604 10602 10600 10598 10595 10593 10590 10587 10584 10581 10577 10574 10570 10567 10563 10559 10555 10551 10547 10542 10538 10533 10529 10524 10520 10515 10510 10505 10500 10496 10491 10486 10481 10476 10471 10467 10463 10458 10454
10605 10602 10600 10597 10595 10594 10591 10588 10586 10582 10579 10576 10573 10570 10567 10563 10560 10556 10552 10548 10543 10539 10534 10529 10525 10520 10516 10511 10506 10502 10497 10492 10487 10483 10478 10473 10468 10463 10458 10453 10448 10443
10598 10595 10593 10591 10589 10587 10584 10581 10578 10575 10572 10569 10566 10562 10559 10556 10552 10548 10544 10540 10535 10531 10526 10521 10517 10512 10508 10503 10499 10494 10489 10485 10480 10475 10471 10466 10460 10455 10451 10446 10440 10434
10591 10588 10586 10584 10582 10579 10577 10574 10571 10568 10565 10562 10558 10555 10552 10548 10545 10540 10536 10532 10528 10523 10518 10514 10510 10505 10500 10496 10491 10486 10482 10477 10473 10468 10463 10459 10453 10448 10443 10438 10433 10426
10583 10581 10579 10577 10575 10572 10569 10567 10564 10561 10558 10555 10551 10548 10545 10541 10537 10533 10529 10525 10520 10516 10512 10507 10503 10498 10494 10489 10484 10480 10475 10470 10466 10461 10456 10452 10447 10441 10435 10430 10425 10419
10576 10574 10572 10570 10568 10565 10563 10560 10557 10554 10551 10548 10544 10541 10538 10534 10530 10526 10522 10517 10513 10509 10505 10501 10496 10491 10487 10482 10477 10473 10468 10464 10459 10455 10450 10445 10440 10434 10427 10421 10417 10412
10569 10567 10565 10563 10560 10558 10556 10553 10550 10547 10544 10541 10538 10534 10531 10527 10523 10519 10515 10511 10507 10503 10498 10494 10489 10485 10480 10476 10471 10467 10462 10458 10453 10448 10443 10438 10432 10427 10421 10414 10408 10402
10562 10560 10558 10556 10554 10551 10549 10546 10543 10541 10538 10535 10531 10528 10523 10519 10516 10512 10508 10504 10500 10495 10491 10487 10482 10478 10473 10469 10464 10460 10456 10451 10446 10441 10436 10430 10424 10419 10413 10407 10400 10393
10555 10553 10551 10549 10547 10545 10542 10540 10537 10534 10531 10528 10524 10521 10516 10512 10509 10505 10501 10497 10493 10488 10484 10480 10476 10471 10467 10462 10457 10453 10448 10444 10439 10433 10428 10422 10416 10410 10404 10398 10392 10385
10548 10546 10544 10542 10540 10538 10535 10533 10530 10528 10525 10521 10518 10514 10510 10506 10502 10498 10494 10490 10486 10481 10477 10473 10469 10464 10460 10455 10451 10446 10441 10437 10431 10426 10420 10414 10408 10401 10395 10389 10383 10377